Retour au catalogue

COSMOS 1191 DEB

ActifHEO
NORAD 12834·DEBRIS·🇷🇺 Russia

Lancé Jul 2, 1980 depuis Plesetsk Cosmodrome

Loading…

Prochains Passages (prochaines 24 heures)

TLE

FraisSource: Space-Track

Époque: Sep 14, 2026, 02:02 UTC

1 12834U 80057F   26257.08525546  .00000150  00000-0  00000-0 0  9991
2 12834  65.7604  94.5543 6625586  21.6529 356.7886  2.00151230243063

Suivez COSMOS 1191 DEB en temps réel avec AllMySat

Download on the App Store